Location: *
(41.0833°N, 73.4167°W)
Time: 14:16:30
(UTC+00:00)

Cosmos 1954 Rocket - Pass Details

Date: 22 October 2019
Orbit: 753 x 781 km, 74.1° (Epoch: 12 November)

Event Time Altitude Azimuth Distance (km) Brightness Sun altitude
Exits shadow 08:59:03 40° 181° (S) 1,110 4.7 -25.8°
Maximum altitude 09:00:54 73° 107° (ESE) 798 4.1 -25.5°
Drops below altitude 10° 09:06:06 10° 23° (NNE) 2,297 6.8 -24.5°
Sets 09:08:28 0° 22° (NNE) 3,223 7.6 -24.1°
